• Processing (Info)

  • MPEC 2010-U26 : 2010 UO

    The following Minor Planet Electronic Circular may be linked-to from your own Web pages, but must not otherwise be redistributed electronically.

    A form allowing access to any MPEC is at the bottom of this page.


    Read MPEC 2010-U25 Read MPEC 2010-U27


    M.P.E.C. 2010-U26                                Issued 2010 Oct. 20, 15:33 UT
    
         The Minor Planet Electronic Circulars contain information on unusual
             minor planets and routine data on comets.  They are published
       on behalf of Commission 20 of the International Astronomical Union by the
              Minor Planet Center, Smithsonian Astrophysical Observatory,
                              Cambridge, MA 02138, U.S.A.
    
                 Prepared using the Tamkin Foundation Computer Network
    
                                  MPC@CFA.HARVARD.EDU
           URL https://www.minorplanetcenter.org/iau/mpc.html  ISSN 1523-6714
    
                                        2010 UO
    
    Observations:
         K10U00O* C2010 10 19.17420 01 25 00.51 +34 33 12.1          20.3 V EU026G96
         K10U00O  C2010 10 19.18018 01 25 08.40 +34 32 15.9          19.6 V EU026G96
         K10U00O  C2010 10 19.18631 01 25 16.35 +34 31 18.6          19.6 V EU026G96
         K10U00O  C2010 10 19.19238 01 25 24.27 +34 30 21.0          20.3 V EU026G96
         K10U00O  C2010 10 19.22582 01 26 07.33 +34 25 02.2          19.5 V EU026G96
         K10U00O  C2010 10 19.22632 01 26 07.94 +34 24 57.4          19.8 V EU026G96
         K10U00O  C2010 10 19.22681 01 26 08.55 +34 24 52.7          19.9 V EU026G96
         K10U00O KC2010 10 19.87146 01 40 39.40 +32 33 46.3                 EU026J95
         K10U00O KC2010 10 19.87623 01 40 45.24 +32 32 58.4                 EU026J95
         K10U00O KC2010 10 19.88025 01 40 50.16 +32 32 19.3          19.3 R EU026J95
         K10U00O KC2010 10 20.28698901 49 10.16 +31 23 26.9          19.5 V EU026H21
         K10U00O KC2010 10 20.29042701 49 14.05 +31 22 50.4          19.5 V EU026H21
         K10U00O KC2010 10 20.29604701 49 20.38 +31 21 50.6          19.4 V EU026H21
         K10U00O KC2010 10 20.29944001 49 24.26 +31 21 14.3          19.3 V EU026H21
    
    Observer details:
    G96 Mt. Lemmon Survey.  Observer A. Boattini.  Measurers J. D. Ahern,
        E. C. Beshore, A. Boattini, G. J. Garradd, A. R. Gibbs, A. D. Grauer,
        R. E. Hill, R. A. Kowalski, S. M. Larson, R. H. McNaught.  1.5-m reflector
        + CCD.
    H21 Astronomical Research Observatory, Westfield.  Observer R. Holmes.
        Measurers S. Foglia, T. Vorobjov.  0.61-m f/4.0 astrograph + CCD.
    J95 Great Shefford.  Observer P. Birtwhistle.  0.40-m f/6.0 Schmidt-Cassegrain
        + CCD.
    
    Orbital elements:
    2010 UO                                                  Earth MOID = 0.0293 AU
    Epoch 2010 July 23.0 TT = JDT 2455400.5                 MPC
    M 315.71835              (2000.0)            P               Q
    n   0.58695445     Peri.  159.26215     +0.97771253     -0.20340878
    a   1.4127537      Node   212.61182     +0.17646941     +0.93036616
    e   0.2807153      Incl.    5.53584     +0.11373985     +0.30503063
    P   1.68           H   26.2           G   0.15           U   7
    Residuals in seconds of arc
    101019 G96  0.7-  0.0     101019 G96  0.1-  0.2+    101020 H21  0.1-  0.2+
    101019 G96  0.2+  0.1-    101019 G96  0.3-  0.2+    101020 H21  0.0   0.2+
    101019 G96  0.2-  0.2+    101019 J95  0.3+  0.4+    101020 H21  0.3-  0.2+
    101019 G96  0.3+  0.1-    101019 J95  0.2-  0.5-    101020 H21  0.3+  0.0
    101019 G96  0.3+  0.2+    101019 J95  0.4-  0.1+
    
    Ephemeris:
    2010 UO                  a,e,i = 1.41, 0.28, 6                   q = 1.0162
    Date    TT    R. A. (2000) Decl.     Delta      r     Elong.  Phase     V
    2010 10 21    02 03.27   +29 20.6    0.0307   1.025   160.5    18.9    19.7
    2010 10 26    03 11.74   +16 28.4    0.0388   1.031   162.3    17.1    20.1
    2010 10 31    03 46.99   +08 01.7    0.0503   1.040   157.8    21.1    20.8
    2010 11 05    04 06.15   +02 54.6    0.0638   1.050   155.2    23.3    21.4
    2010 11 10    04 17.02   -00 11.0    0.0784   1.062   154.3    23.9    21.9
    
    Sonia Keys                   (C) Copyright 2010 MPC           M.P.E.C. 2010-U26
    

    Read MPEC 2010-U25 Read MPEC 2010-U27


    MPEC number:

    Enter an MPEC number in one of the following forms:

    • 1997-B01 (the full form)
    • J97B01 (the packed version of the full form)
    • B01 (the abbreviated form)